AFL564 URWW-URSS

Flight info

Callsign AFL564
Flight time 1h 44m
Altitude 30000
Route GAMTU2F GAMTU G364 ASTIB/K0820F310 G364 OBETI G900 ER B145 SUDIR N166 ADNET W79 BINOL BINOL1K
Aircraft MD88/M-SDFGIRWY/C

Departure

Time 2026-05-04 10:08
Airport Volgograd International Airport (URWW)

Arrival

Time 2026-05-04 11:52
Airport Sochi International Airport (URSS)
Time Latitude Longitude Altitude Speed Heading
2026-05-04 09:20 48.79055 44.35456 469 ft 0 kts 339°
2026-05-04 09:40 48.79048 44.35460 468 ft 2 kts 339°
2026-05-04 09:40 48.79035 44.35467 468 ft 1 kts 339°
2026-05-04 09:40 48.79025 44.35473 468 ft 2 kts 326°
2026-05-04 09:40 48.79017 44.35490 468 ft 2 kts 289°
2026-05-04 09:41 48.79015 44.35513 468 ft 2 kts 258°
2026-05-04 09:42 48.79019 44.35527 468 ft 0 kts 249°
2026-05-04 09:53 48.79018 44.35527 468 ft 0 kts 249°
2026-05-04 09:53 48.79018 44.35524 468 ft 1 kts 249°
2026-05-04 09:54 48.79017 44.35518 468 ft 2 kts 251°
2026-05-04 09:54 48.79007 44.35476 468 ft 7 kts 250°
2026-05-04 09:54 48.78989 44.35404 468 ft 7 kts 249°
2026-05-04 09:54 48.78972 44.35334 468 ft 6 kts 249°
2026-05-04 09:55 48.78955 44.35267 469 ft 6 kts 249°
2026-05-04 09:55 48.78937 44.35195 468 ft 7 kts 250°
2026-05-04 09:55 48.78934 44.35180 468 ft 7 kts 250°
2026-05-04 09:55 48.78919 44.35133 468 ft 8 kts 232°
2026-05-04 09:56 48.78878 44.35070 466 ft 8 kts 238°
2026-05-04 09:56 48.78855 44.34992 465 ft 8 kts 249°
2026-05-04 09:56 48.78833 44.34903 462 ft 9 kts 250°
2026-05-04 09:56 48.78827 44.34876 461 ft 10 kts 250°
2026-05-04 09:57 48.78821 44.34853 460 ft 10 kts 249°
2026-05-04 09:57 48.78794 44.34748 457 ft 10 kts 250°
2026-05-04 09:57 48.78768 44.34643 454 ft 10 kts 249°
2026-05-04 09:57 48.78742 44.34541 452 ft 10 kts 248°
2026-05-04 09:58 48.78715 44.34438 449 ft 10 kts 248°
2026-05-04 09:58 48.78689 44.34338 447 ft 10 kts 248°
2026-05-04 09:58 48.78664 44.34243 445 ft 9 kts 248°
2026-05-04 10:00 48.78500 44.34189 447 ft 2 kts 165°
2026-05-04 10:00 48.78474 44.34200 448 ft 5 kts 165°
2026-05-04 10:02 48.77979 44.32843 421 ft 27 kts 244°
2026-05-04 10:04 48.77607 44.31784 397 ft 0 kts 172°
2026-05-04 10:05 48.77599 44.31786 397 ft 2 kts 167°
2026-05-04 10:05 48.77582 44.31794 397 ft 3 kts 160°
2026-05-04 10:05 48.77549 44.31817 398 ft 6 kts 153°
2026-05-04 10:05 48.77503 44.31875 399 ft 6 kts 107°
2026-05-04 10:06 48.77504 44.31913 400 ft 0 kts 73°
2026-05-04 10:06 48.77504 44.31915 400 ft 0 kts 72°
2026-05-04 10:06 48.77508 44.31929 400 ft 3 kts 66°
2026-05-04 10:08 48.78901 44.36271 1053 ft 158 kts 65°
2026-05-04 10:08 48.79379 44.37738 1668 ft 154 kts 63°
2026-05-04 10:08 48.79811 44.39171 2246 ft 153 kts 63°
2026-05-04 10:08 48.80280 44.40651 2733 ft 156 kts 63°
2026-05-04 10:09 48.80722 44.42036 3348 ft 148 kts 62°
2026-05-04 10:09 48.81191 44.43521 3655 ft 163 kts 62°
2026-05-04 10:09 48.81467 44.44393 3763 ft 176 kts 62°
2026-05-04 10:09 48.81985 44.46037 4470 ft 170 kts 63°
2026-05-04 10:10 48.82496 44.47654 4981 ft 176 kts 63°
2026-05-04 10:10 48.83067 44.49458 5141 ft 205 kts 63°
2026-05-04 10:10 48.83727 44.51546 5326 ft 233 kts 63°
2026-05-04 10:10 48.84469 44.53898 5599 ft 257 kts 63°
2026-05-04 10:11 48.85231 44.56313 6451 ft 257 kts 63°
2026-05-04 10:11 48.86010 44.58776 7118 ft 265 kts 63°
2026-05-04 10:11 48.86804 44.61291 7933 ft 266 kts 63°
2026-05-04 10:11 48.87229 44.64009 8531 ft 276 kts 91°
2026-05-04 10:12 48.86721 44.66835 9262 ft 283 kts 118°
2026-05-04 10:12 48.85413 44.69058 9905 ft 293 kts 144°
2026-05-04 10:12 48.83553 44.70504 10283 ft 310 kts 152°
2026-05-04 10:12 48.81603 44.72144 10382 ft 336 kts 149°
2026-05-04 10:13 48.79536 44.73890 11011 ft 343 kts 152°
2026-05-04 10:13 48.77391 44.75462 11727 ft 347 kts 154°
2026-05-04 10:13 48.75201 44.76952 12414 ft 351 kts 156°
2026-05-04 10:13 48.72921 44.78368 13076 ft 356 kts 158°
2026-05-04 10:14 48.70609 44.79695 13780 ft 359 kts 160°
2026-05-04 10:14 48.68240 44.80957 14369 ft 364 kts 161°
2026-05-04 10:16 48.54550 44.71953 18649 ft 369 kts 249°
2026-05-04 10:16 48.53550 44.68393 19215 ft 371 kts 248°
2026-05-04 10:16 48.52519 44.64885 19884 ft 369 kts 246°
2026-05-04 10:16 48.51442 44.61331 20387 ft 372 kts 246°
2026-05-04 10:17 48.50348 44.57797 20924 ft 374 kts 246°
2026-05-04 10:17 48.49246 44.54283 21513 ft 373 kts 246°
2026-05-04 10:19 48.41238 44.29330 24690 ft 388 kts 244°
2026-05-04 10:19 48.40054 44.25667 25196 ft 389 kts 244°
2026-05-04 10:19 48.38885 44.22045 25626 ft 391 kts 244°
2026-05-04 10:19 48.37686 44.18332 26074 ft 393 kts 244°
2026-05-04 10:20 48.36496 44.14640 26431 ft 396 kts 244°
2026-05-04 10:20 48.35302 44.10934 26836 ft 398 kts 244°
2026-05-04 10:20 48.34096 44.07187 27192 ft 402 kts 244°
2026-05-04 10:20 48.32891 44.03439 27665 ft 402 kts 244°
2026-05-04 10:21 48.31670 43.99641 27999 ft 405 kts 244°
2026-05-04 10:21 48.30439 43.95803 28309 ft 409 kts 244°
2026-05-04 10:21 48.29211 43.91978 28796 ft 408 kts 244°
2026-05-04 10:21 48.27984 43.88147 29091 ft 412 kts 244°
2026-05-04 10:22 48.25486 43.80336 29943 ft 413 kts 244°
2026-05-04 10:22 48.24248 43.76463 30027 ft 419 kts 244°
2026-05-04 10:23 48.21758 43.68654 30037 ft 414 kts 244°
2026-05-04 10:25 48.11213 43.38044 30034 ft 416 kts 242°
2026-05-04 10:25 48.08516 43.30356 30038 ft 417 kts 242°
2026-05-04 10:26 48.05844 43.22730 30034 ft 416 kts 242°
2026-05-04 10:26 48.03167 43.15081 30034 ft 417 kts 242°
2026-05-04 10:27 48.00486 43.07399 30032 ft 419 kts 242°
2026-05-04 10:27 47.97798 42.99688 30047 ft 422 kts 242°
2026-05-04 10:27 47.96449 42.95820 30394 ft 422 kts 242°
2026-05-04 10:28 47.95058 42.92027 30909 ft 419 kts 241°
2026-05-04 10:28 47.93648 42.88208 31024 ft 419 kts 241°
2026-05-04 10:28 47.92246 42.84422 31035 ft 419 kts 241°
2026-05-04 10:29 47.89439 42.76869 31036 ft 418 kts 241°
2026-05-04 10:29 47.86619 42.69291 31033 ft 419 kts 241°
2026-05-04 10:30 47.83796 42.61706 31034 ft 420 kts 241°
2026-05-04 10:30 47.80969 42.54104 31033 ft 421 kts 241°
2026-05-04 10:31 47.78138 42.46479 31031 ft 422 kts 241°
2026-05-04 10:32 47.69292 42.22574 31034 ft 423 kts 240°
2026-05-04 10:33 47.66475 42.14932 31033 ft 424 kts 240°
2026-05-04 10:33 47.63658 42.07275 31031 ft 425 kts 240°
2026-05-04 10:34 47.61129 42.00392 31031 ft 425 kts 240°
2026-05-04 10:34 47.58296 41.92664 31039 ft 426 kts 240°
2026-05-04 10:35 47.55453 41.85001 31034 ft 427 kts 239°
2026-05-04 10:35 47.52566 41.77390 31032 ft 427 kts 240°
2026-05-04 10:36 47.49675 41.69759 31034 ft 427 kts 240°
2026-05-04 10:36 47.46600 41.62229 31028 ft 426 kts 231°
2026-05-04 10:37 47.42318 41.56344 31024 ft 426 kts 214°
2026-05-04 10:37 47.37468 41.51263 31025 ft 427 kts 215°
2026-05-04 10:39 47.20652 41.33276 31025 ft 429 kts 215°
2026-05-04 10:40 47.16112 41.28389 31021 ft 428 kts 215°
2026-05-04 10:40 47.11360 41.23273 31019 ft 429 kts 215°
2026-05-04 10:41 47.06932 41.18501 31017 ft 432 kts 215°
2026-05-04 10:41 47.02434 41.13651 31019 ft 433 kts 215°
2026-05-04 10:42 46.97632 41.08472 31021 ft 433 kts 215°
2026-05-04 10:42 46.92777 41.03228 31019 ft 432 kts 215°
2026-05-04 10:43 46.88019 40.98092 31018 ft 431 kts 215°
2026-05-04 10:45 46.68620 40.76987 31018 ft 436 kts 215°
2026-05-04 10:45 46.63777 40.71693 31013 ft 437 kts 215°
2026-05-04 10:46 46.58893 40.66420 31014 ft 437 kts 213°
2026-05-04 10:46 46.53738 40.61858 31014 ft 435 kts 207°
2026-05-04 10:47 46.48428 40.57568 31012 ft 436 kts 208°
2026-05-04 10:47 46.43146 40.53268 31010 ft 437 kts 208°
2026-05-04 10:49 46.20638 40.41021 31007 ft 437 kts 192°
2026-05-04 10:50 46.14743 40.38835 31018 ft 436 kts 193°
2026-05-04 10:52 45.91360 40.30071 31005 ft 439 kts 192°
2026-05-04 10:52 45.85447 40.27851 31007 ft 440 kts 192°
2026-05-04 10:54 45.65498 40.16921 30993 ft 443 kts 204°
2026-05-04 10:54 45.62712 40.14968 30995 ft 444 kts 204°
2026-05-04 10:56 45.40185 40.00838 30960 ft 441 kts 187°
2026-05-04 10:57 45.34101 39.99815 30956 ft 440 kts 183°
2026-05-04 10:57 45.28040 39.98886 30953 ft 440 kts 184°
2026-05-04 10:58 45.21968 39.97912 30954 ft 440 kts 184°
2026-05-04 10:58 45.15899 39.96920 30954 ft 440 kts 184°
2026-05-04 10:59 45.09829 39.95919 30953 ft 441 kts 184°
2026-05-04 10:59 45.03743 39.94910 30935 ft 441 kts 184°
2026-05-04 11:00 44.97636 39.93897 30926 ft 440 kts 184°
2026-05-04 11:02 44.73403 39.89938 30914 ft 439 kts 184°
2026-05-04 11:05 44.28688 39.87093 30884 ft 425 kts 161°
2026-05-04 11:06 44.25861 39.88267 30711 ft 424 kts 161°
2026-05-04 11:06 44.23049 39.89415 30134 ft 423 kts 161°
2026-05-04 11:06 44.20224 39.90557 29591 ft 417 kts 161°
2026-05-04 11:06 44.17480 39.91658 29063 ft 413 kts 162°
2026-05-04 11:08 43.99004 39.98988 25732 ft 376 kts 161°
2026-05-04 11:10 43.81805 40.05754 22504 ft 361 kts 161°
2026-05-04 11:12 43.65344 40.09101 19666 ft 342 kts 200°
2026-05-04 11:12 43.63260 40.07689 19445 ft 342 kts 201°
2026-05-04 11:12 43.61108 40.06258 19177 ft 346 kts 201°
2026-05-04 11:12 43.58926 40.04829 18924 ft 350 kts 201°
2026-05-04 11:13 43.56748 40.03440 18772 ft 349 kts 201°
2026-05-04 11:13 43.54539 40.02029 18594 ft 348 kts 200°
2026-05-04 11:13 43.52354 40.00634 18439 ft 347 kts 201°
2026-05-04 11:13 43.50156 39.99232 18253 ft 345 kts 200°
2026-05-04 11:14 43.49437 39.98770 18210 ft 345 kts 200°
2026-05-04 11:16 43.28496 39.88500 13359 ft 317 kts 194°
2026-05-04 11:16 43.26429 39.87571 12813 ft 312 kts 195°
2026-05-04 11:16 43.24401 39.86652 12290 ft 307 kts 194°
2026-05-04 11:17 43.22376 39.85738 11729 ft 302 kts 195°
2026-05-04 11:17 43.20416 39.84853 11247 ft 298 kts 195°
2026-05-04 11:19 43.07410 39.78967 7807 ft 270 kts 197°
2026-05-04 11:19 43.05648 39.78169 7400 ft 267 kts 197°
2026-05-04 11:19 43.03888 39.77374 7013 ft 264 kts 197°
2026-05-04 11:19 43.02284 39.76149 6712 ft 265 kts 226°
2026-05-04 11:20 43.01318 39.74028 6389 ft 264 kts 256°
2026-05-04 11:20 43.01217 39.71589 6086 ft 260 kts 284°
2026-05-04 11:20 43.01984 39.69416 5770 ft 256 kts 313°
2026-05-04 11:20 43.03418 39.68053 5469 ft 254 kts 342°
2026-05-04 11:22 43.13616 39.73434 3223 ft 219 kts 23°
2026-05-04 11:22 43.14994 39.74340 2866 ft 217 kts 23°
2026-05-04 11:23 43.16350 39.75225 2513 ft 216 kts 24°
2026-05-04 11:23 43.17695 39.76102 2167 ft 214 kts 23°
2026-05-04 11:24 43.25301 39.81018 1972 ft 204 kts 23°
2026-05-04 11:25 43.26587 39.81840 1989 ft 202 kts 22°
2026-05-04 11:25 43.27824 39.82694 1982 ft 199 kts 27°
2026-05-04 11:25 43.29003 39.83581 1929 ft 184 kts 27°
2026-05-04 11:26 43.31096 39.85160 1951 ft 158 kts 26°
2026-05-04 11:27 43.37541 39.90058 1315 ft 151 kts 26°
2026-05-04 11:28 43.38458 39.90743 1124 ft 152 kts 26°
2026-05-04 11:28 43.39397 39.91445 928 ft 153 kts 25°
2026-05-04 11:28 43.40321 39.92134 737 ft 153 kts 26°
2026-05-04 11:28 43.41264 39.92840 536 ft 154 kts 25°
2026-05-04 11:29 43.42211 39.93543 331 ft 155 kts 26°
2026-05-04 11:29 43.43154 39.94256 128 ft 153 kts 25°
2026-05-04 11:29 43.44060 39.94936 59 ft 140 kts 26°
2026-05-04 11:29 43.44983 39.95631 389 ft 166 kts 25°
2026-05-04 11:31 43.41374 39.98342 5758 ft 197 kts 197°
2026-05-04 11:33 43.33883 39.92661 10488 ft 199 kts 222°
2026-05-04 11:33 43.32883 39.91146 10599 ft 229 kts 223°
2026-05-04 11:33 43.31766 39.89443 10727 ft 258 kts 223°
2026-05-04 11:34 43.30486 39.87494 10709 ft 293 kts 224°
2026-05-04 11:34 43.29049 39.85294 10747 ft 325 kts 224°
2026-05-04 11:34 43.27478 39.82869 10704 ft 358 kts 224°
2026-05-04 11:34 43.25685 39.80328 10613 ft 387 kts 216°
2026-05-04 11:35 43.23349 39.78219 10180 ft 404 kts 205°
2026-05-04 11:35 43.20844 39.76762 9565 ft 376 kts 196°
2026-05-04 11:35 43.18403 39.75923 8890 ft 350 kts 189°
2026-05-04 11:35 43.16074 39.75486 8347 ft 328 kts 185°
2026-05-04 11:36 43.13895 39.75596 7772 ft 312 kts 165°
2026-05-04 11:36 43.11996 39.76889 7239 ft 299 kts 140°
2026-05-04 11:36 43.10577 39.78884 6746 ft 288 kts 140°
2026-05-04 11:36 43.08843 39.80059 6419 ft 274 kts 169°
2026-05-04 11:37 43.06989 39.80162 6175 ft 260 kts 175°
2026-05-04 11:37 43.05335 39.80879 5893 ft 249 kts 148°
2026-05-04 11:37 43.03865 39.82094 5546 ft 242 kts 146°
2026-05-04 11:37 43.02482 39.83330 5671 ft 245 kts 141°
2026-05-04 11:38 43.01163 39.85020 5717 ft 277 kts 140°
2026-05-04 11:38 42.99439 39.86370 5792 ft 302 kts 161°
2026-05-04 11:38 42.97368 39.86903 5718 ft 291 kts 181°
2026-05-04 11:38 42.95475 39.86471 5661 ft 265 kts 203°
2026-05-04 11:39 42.93975 39.85207 5615 ft 240 kts 228°
2026-05-04 11:39 42.93074 39.83463 5641 ft 215 kts 245°
2026-05-04 11:40 42.94033 39.74355 5862 ft 199 kts 327°
2026-05-04 11:41 42.95337 39.73410 5831 ft 223 kts 339°
2026-05-04 11:41 42.96821 39.72843 5487 ft 228 kts 350°
2026-05-04 11:41 42.98444 39.72798 4951 ft 238 kts
2026-05-04 11:41 43.00011 39.73317 4723 ft 226 kts 10°
2026-05-04 11:42 43.01521 39.73809 4575 ft 217 kts 11°
2026-05-04 11:42 43.02986 39.74285 4404 ft 215 kts 11°
2026-05-04 11:42 43.04414 39.74753 4242 ft 211 kts 10°
2026-05-04 11:42 43.05830 39.75214 4090 ft 206 kts 11°
2026-05-04 11:43 43.07211 39.75665 3936 ft 201 kts 10°
2026-05-04 11:43 43.08550 39.76103 3799 ft 199 kts 10°
2026-05-04 11:43 43.09919 39.76552 3675 ft 202 kts 10°
2026-05-04 11:43 43.11284 39.76998 3551 ft 203 kts 10°
2026-05-04 11:44 43.12672 39.77451 3414 ft 202 kts 10°
2026-05-04 11:44 43.14032 39.77898 3244 ft 199 kts 10°
2026-05-04 11:44 43.15369 39.78334 3081 ft 198 kts 11°
2026-05-04 11:44 43.16744 39.78775 3075 ft 207 kts 11°
2026-05-04 11:45 43.18115 39.79216 3046 ft 196 kts 11°
2026-05-04 11:45 43.19434 39.79647 2884 ft 193 kts 11°
2026-05-04 11:45 43.20722 39.80061 2718 ft 190 kts 11°
2026-05-04 11:45 43.21977 39.80457 2667 ft 177 kts 10°
2026-05-04 11:46 43.23171 39.80830 2493 ft 171 kts
2026-05-04 11:46 43.24315 39.81186 2325 ft 167 kts 11°
2026-05-04 11:46 43.25385 39.81702 2120 ft 165 kts 33°
2026-05-04 11:46 43.26340 39.82525 1967 ft 157 kts 32°
2026-05-04 11:47 43.27252 39.83272 1917 ft 147 kts 24°
2026-05-04 11:47 43.28173 39.83736 1923 ft 136 kts 21°
2026-05-04 11:47 43.29065 39.84256 2011 ft 149 kts 19°
2026-05-04 11:47 43.30054 39.84855 2066 ft 161 kts 22°
2026-05-04 11:48 43.31110 39.85529 2055 ft 170 kts 23°
2026-05-04 11:48 43.32153 39.86224 2030 ft 157 kts 24°
2026-05-04 11:48 43.33091 39.86868 1939 ft 148 kts 24°
2026-05-04 11:48 43.33988 39.87497 1934 ft 140 kts 24°
2026-05-04 11:49 43.34812 39.88086 1815 ft 132 kts 24°
2026-05-04 11:49 43.35613 39.88663 1642 ft 128 kts 24°
2026-05-04 11:49 43.36401 39.89235 1497 ft 128 kts 25°
2026-05-04 11:49 43.37203 39.89822 1356 ft 130 kts 26°
2026-05-04 11:50 43.38004 39.90414 1208 ft 132 kts 26°
2026-05-04 11:50 43.38815 39.91016 1046 ft 133 kts 25°
2026-05-04 11:50 43.39623 39.91616 878 ft 133 kts 26°
2026-05-04 11:50 43.40438 39.92221 728 ft 133 kts 25°
2026-05-04 11:51 43.41249 39.92827 568 ft 133 kts 25°
2026-05-04 11:51 43.42063 39.93436 363 ft 135 kts 27°
2026-05-04 11:51 43.42880 39.94046 167 ft 132 kts 25°
2026-05-04 11:51 43.43681 39.94651 49 ft 128 kts 25°
2026-05-04 11:52 43.44478 39.95248 61 ft 155 kts 28°
2026-05-04 11:52 43.45264 39.95847 66 ft 56 kts 30°
2026-05-04 11:52 43.45331 39.95900 69 ft 0 kts 30°
2026-05-04 11:52 43.45334 39.95902 69 ft 1 kts 26°